Tracking 29892 objects as of 21-Nov-2024
HD Live streaming from Space Station
objects crossing your sky now

STARLINK-5169

Track STARLINK-5169 now!
10-day predictions
STARLINK-5169 is classified as:


NORAD ID: 54060
Int'l Code: 2022-136K
Perigee: 545.8 km
Apogee: 548.1 km
Inclination: 53.2 °
Period: 95.4 minutes
Semi major axis: 6917 km
RCS: Unknown
Launch date: October 20, 2022
Source: United States (US)
Launch site: AIR FORCE EASTERN TEST RANGE (AFETR)
Your satellite tracking list
Your tracking list is empty




NASA's NSSDC Master Catalog

Two Line Element Set (TLE):
1 54060U 22136K   24324.90811359  .00004351  00000-0  29136-3 0  9997
2 54060  53.2183 285.1495 0001687 105.0044 255.1135 15.08828278115591
Source of the keplerian elements: AFSPC